Wetbulb
63.16 62.21 54.35 52.58 45.33 42.60 39.38 43.43 46.97 47.93 48.88 52.56 54.58 55.22 54.65 55.53 53.29 48.99 63.51 65.50 67.27 68.03 69.40 69.83 71.37 71.74 71.46 71.28 71.28 71.09 71.27 71.40 70.79 70.27 69.94 69.30 68.61 67.86 68.09 67.71 68.27 67.37 67.41 67.47 67.47 67.62 67.34 67.24 67.13
60.32 61.90 53.04 47.40 41.42 37.82 39.98 44.73 46.61 48.86 52.32 55.51 56.05 55.35 54.96 53.18 58.78 62.42 63.34 66.96 67.63 68.44 68.35 68.28 69.94 71.15 71.18 71.03 71.10 70.89 70.97 71.25 71.02 70.03 69.83 69.19 69.75 68.28 67.54 67.01 67.04 66.89 66.84 66.80 66.74 66.79 66.92 66.83 67.61
61.32 59.94 48.89 44.59 39.37 38.43 40.74 46.03 48.44 50.83 52.64 53.07 53.89 56.93 56.15 55.81 60.14 62.05 65.84 66.57 67.83 67.36 67.13 68.02 69.55 70.74 70.85 70.84 70.55 70.49 70.05 70.59 70.56 70.69 69.51 69.65 68.74 67.67 67.31 66.92 66.78 66.67 66.30 66.00 66.32 66.80 66.39 66.69 67.29
57.99 53.74 49.34 43.00 39.12 43.02 44.34 48.32 50.34 50.24 50.76 54.61 54.93 53.15 57.80 61.06 60.72 64.42 66.59 67.32 66.39 66.31 67.13 68.42 69.75 70.43 70.13 69.92 69.88 69.88 69.73 70.27 70.54 70.34 69.31 68.84 68.30 67.62 67.31 66.72 66.64 66.54 66.13 65.92 65.71 65.81 66.09 66.21 66.93
56.46 49.90 43.22 42.80 41.90 43.78 47.62 50.35 51.03 49.57 50.29 51.37 54.09 52.18 54.22 60.88 64.91 65.68 65.81 65.96 64.98 65.34 66.56 68.20 69.25 69.55 69.76 69.29 69.65 69.41 69.24 69.21 69.48 69.39 69.19 68.11 68.60 67.32 66.59 66.22 66.22 66.16 65.90 65.32 65.20 65.18 65.01 65.32 65.80
51.93 48.22 40.70 40.52 43.59 44.79 47.20 51.53 50.46 48.74 49.69 53.45 53.82 53.95 54.70 61.57 64.45 65.48 65.63 64.70 65.39 65.77 66.69 67.58 66.67 67.66 68.54 68.98 68.92 68.71 68.43 68.27 68.44 68.46 68.29 68.07 67.76 66.88 66.18 65.89 66.19 65.99 65.70 65.20 64.72 64.41 64.41 64.67 64.89
50.42 46.95 41.83 43.01 42.53 43.52 45.59 50.16 49.46 49.77 50.30 49.67 56.38 53.34 53.95 57.24 64.14 65.57 64.72 63.86 64.84 65.44 65.25 65.67 66.51 66.00 65.55 66.68 66.83 67.37 67.57 67.36 67.15 67.08 67.67 67.53 67.08 66.92 66.23 66.18 65.77 65.65 65.34 64.98 64.43 63.88 64.03 64.20 64.17
49.85 48.09 44.88 42.11 43.43 44.69 46.74 49.02 49.42 50.59 49.48 54.21 57.65 51.73 52.63 57.87 64.18 65.31 64.32 63.96 63.42 63.55 64.30 64.66 64.76 64.68 64.21 63.61 63.19 64.04 65.64 66.36 66.10 65.47 64.09 63.61 64.38 64.98 64.62 63.85 65.42 65.27 64.93 64.41 64.08 63.73 63.74 63.53 63.26
53.67 44.78 42.47 44.62 45.31 45.90 47.41 46.85 49.27 51.42 51.81 54.88 57.29 55.91 57.10 60.54 64.56 64.07 63.37 62.95 62.20 62.27 63.29 64.00 63.74 63.39 63.10 62.79 61.34 62.44 63.65 63.85 63.46 62.42 61.29 60.50 60.89 61.41 61.38 62.27 64.11 64.57 64.46 63.59 63.38 62.77 62.20 61.42 60.43
51.62 45.24 45.25 48.52 44.19 42.94 47.08 46.90 49.24 49.43 50.39 52.19 55.41 58.34 59.67 60.90 62.14 62.14 62.40 61.56 60.91 59.93 61.56 63.54 63.15 62.60 62.34 63.57 61.96 61.28 61.70 61.28 60.58 60.00 59.77 60.34 60.51 60.48 60.96 59.87 62.01 62.97 62.80 63.52 63.04 62.39 61.73 59.39 57.49
49.61 47.71 49.83 49.79 47.36 45.71 45.07 46.16 48.21 49.16 46.90 51.71 53.10 56.30 58.83 59.14 59.47 61.42 62.00 62.58 61.31 60.91 61.54 62.62 62.82 62.87 61.68 61.71 61.14 60.36 59.51 58.87 59.36 59.46 59.91 59.98 59.91 58.87 58.03 57.37 58.17 57.42 57.54 56.95 58.05 57.75 57.18 57.28 57.15
47.79 52.05 52.30 51.11 48.89 45.51 44.51 45.91 46.16 47.69 48.87 51.58 56.73 58.73 59.16 59.18 59.38 60.13 61.36 61.07 60.96 61.13 61.10 61.54 62.26 62.92 61.59 61.35 60.62 60.25 59.77 59.18 58.75 59.27 60.15 58.55 57.67 56.57 56.09 55.41 55.37 55.49 56.64 56.46 56.36 56.59 56.90 56.88 57.58
47.49 51.27 49.39 51.89 49.57 45.59 45.63 44.62 45.57 46.52 47.46 55.54 59.05 58.94 58.74 59.49 59.43 59.55 60.44 60.99 60.88 61.54 61.51 60.14 61.26 61.46 61.56 61.12 59.83 59.65 59.65 60.10 59.65 60.12 60.07 58.68 57.21 56.63 56.21 55.75 56.09 55.85 56.15 55.79 56.32 56.44 57.29 57.31 57.57
51.14 51.39 50.44 49.63 48.11 47.86 43.47 43.87 43.61 45.57 55.19 56.89 57.98 57.66 58.60 58.87 59.66 59.78 59.28 59.69 59.79 61.65 61.44 60.78 60.36 60.58 60.18 60.65 59.63 58.94 59.08 60.18 59.94 59.99 59.71 58.76 58.31 57.29 56.75 56.45 56.42 56.64 56.58 57.01 56.79 56.82 56.88 57.00 57.12
50.53 48.58 46.76 48.45 49.56 48.30 45.83 46.80 42.14 46.08 55.32 55.67 55.75 55.77 57.47 58.34 58.98 60.22 60.07 59.69 60.24 61.10 61.94 62.31 59.29 59.72 59.41 59.99 60.10 59.18 58.91 59.57 59.54 60.10 60.16 59.89 59.28 57.78 57.27 56.30 56.81 57.08 57.60 57.41 57.31 56.87 56.84 56.72 56.75
46.81 45.81 42.04 46.12 46.72 47.60 49.26 44.24 48.13 47.13 53.70 53.53 53.66 53.70 56.07 56.82 58.75 60.01 60.45 59.85 60.32 60.62 60.71 62.37 61.58 59.94 59.42 58.87 58.92 59.28 59.07 58.75 59.22 60.28 60.50 59.73 59.56 58.49 57.39 57.36 57.60 58.12 57.86 57.54 56.68 56.27 55.87 55.49 55.29
42.93 37.72 40.84 43.38 46.10 43.57 44.80 45.33 50.87 49.69 48.45 51.98 52.93 53.87 55.21 56.15 57.02 59.27 60.10 60.62 59.72 60.21 60.17 61.57 62.22 60.52 59.79 59.66 59.76 58.41 58.79 58.58 58.45 59.46 59.79 59.81 59.98 59.10 57.99 58.02 58.42 58.39 57.76 56.79 56.52 55.95 55.16 54.82 54.96
36.19 40.14 40.44 41.36 43.96 40.41 38.25 40.36 44.72 44.77 43.94 45.72 52.00 53.54 54.64 55.65 56.81 59.11 59.63 60.21 59.24 59.86 59.79 61.68 62.96 62.04 60.91 60.55 59.63 58.88 58.01 57.39 58.27 59.18 59.91 59.98 60.14 59.72 58.72 58.90 58.61 58.44 57.29 56.55 56.21 55.49 55.61 55.19 55.06
42.73 41.01 39.85 41.60 44.55 42.09 41.47 42.53 43.27 44.57 41.64 41.74 43.89 48.35 52.73 55.39 58.09 59.07 60.06 59.37 58.06 58.21 58.64 60.43 62.12 62.29 61.71 61.08 59.25 58.17 58.46 57.93 56.90 58.64 59.98 60.33 60.22 59.66 58.80 58.80 59.05 58.88 57.94 57.30 56.67 55.39 54.66 54.51 55.93
41.37 40.10 40.28 42.53 44.09 43.59 40.42 41.11 43.39 43.00 44.18 42.02 43.03 43.69 46.74 52.72 55.21 57.66 59.13 58.78 58.23 56.91 58.37 59.02 61.05 61.84 62.34 62.21 62.29 59.69 58.79 58.07 57.96 57.91 58.99 60.71 60.15 59.82 59.73 58.93 58.93 59.23 58.55 57.40 56.59 55.63 53.99 54.13 55.41
42.77 41.02 40.59 41.04 40.83 43.24 39.06 38.23 40.10 43.83 45.55 45.58 43.82 44.31 45.47 46.86 52.71 55.70 57.82 58.51 59.08 57.34 57.38 58.71 59.76 60.84 62.06 62.32 62.01 60.61 57.80 57.44 57.53 57.58 58.43 59.45 60.80 60.44 60.23 59.66 59.42 58.91 58.88 57.74 57.01 56.09 54.75 53.82 54.41
40.11 45.71 44.40 41.07 39.51 35.66 41.09 33.51 38.35 42.58 44.37 45.51 47.39 47.01 45.36 44.55 49.41 54.44 57.09 58.12 58.93 59.46 58.14 58.70 59.59 60.22 61.06 61.69 60.89 60.37 59.40 57.89 59.05 59.81 59.59 59.31 60.27 60.80 60.52 60.08 59.69 59.10 59.19 58.18 57.66 57.60 56.86 54.77 55.13
41.89 47.01 45.29 41.79 39.28 36.28 35.28 36.40 36.97 38.72 41.25 45.36 47.11 48.24 48.86 46.85 45.60 52.10 55.63 58.35 59.70 60.26 59.18 57.60 58.33 59.31 60.33 61.00 61.14 60.16 59.19 59.47 58.61 59.53 58.91 58.92 59.10 60.64 60.95 60.39 59.63 59.20 58.81 59.07 58.37 55.89 56.81 57.16 56.79
41.94 40.42 40.79 39.74 38.67 32.88 36.90 36.93 34.85 37.06 41.39 42.31 46.40 49.12 49.24 47.44 45.54 48.08 54.29 57.72 58.89 60.25 59.76 57.31 56.20 58.04 59.34 60.31 60.55 59.44 58.67 58.14 57.08 57.66 58.11 58.68 59.18 59.98 60.64 60.53 60.28 59.67 59.04 58.25 57.82 57.74 57.38 57.38 57.20
42.42 40.65 32.77 31.97 30.90 31.99 34.72 33.98 40.01 41.50 41.94 42.78 43.93 45.17 46.56 47.35 46.70 44.99 46.63 52.39 56.24 57.26 58.98 57.99 55.57 56.37 58.33 58.90 59.17 59.31 58.79 58.58 57.57 57.61 58.29 58.03 58.27 58.98 60.04 60.38 60.05 59.92 59.28 58.70 58.08 57.26 57.34 56.85 56.75
41.54 41.87 33.99 29.80 28.60 31.41 31.60 29.68 35.89 42.94 46.32 44.48 44.47 44.71 43.08 44.32 46.95 46.73 44.98 50.22 54.46 56.24 58.43 58.99 57.84 56.19 56.19 57.72 58.16 58.76 59.02 58.82 58.44 58.44 58.55 59.08 59.12 59.56 60.04 60.49 60.75 60.33 59.99 59.19 58.19 57.95 57.36 57.24 56.79
40.15 38.98 39.63 27.53 19.52 24.73 28.77 31.88 37.95 40.63 40.17 40.48 39.90 38.74 40.00 41.11 42.01 45.24 45.95 44.83 51.27 54.13 57.04 58.81 59.17 58.79 58.21 56.28 57.18 57.57 58.16 58.08 57.91 58.27 59.07 59.50 60.29 60.73 60.56 60.57 60.89 61.03 60.32 59.29 58.73 58.26 57.30 56.89 57.08
41.30 42.69 34.60 33.50 24.26 21.15 26.66 27.12 32.50 36.62 38.50 39.97 39.48 39.57 39.63 39.57 40.30 41.72 43.49 43.06 45.56 51.35 54.63 57.25 59.19 59.29 59.71 59.64 58.37 57.50 57.37 57.80 58.22 58.69 58.66 59.70 60.43 60.25 59.64 59.71 60.12 60.82 60.31 59.91 58.88 58.64 57.66 55.99 56.03
38.61 38.54 37.99 35.31 31.97 25.19 22.28 27.20 35.60 39.99 38.73 40.46 40.38 40.22 39.41 39.54 39.99 40.55 40.35 40.71 42.07 43.10 47.50 51.43 53.33 54.72 55.33 56.58 59.65 60.22 60.00 58.93 58.18 58.40 59.37 60.14 60.37 59.79 59.90 59.33 59.83 59.78 59.68 58.79 57.73 57.61 56.71 53.34 55.05
38.80 41.23 40.37 36.27 29.31 28.45 28.04 28.89 37.14 38.12 39.03 39.01 38.99 39.16 38.94 39.16 38.61 38.39 39.23 39.99 40.08 40.32 40.50 42.57 46.88 50.72 53.17 53.75 54.38 56.50 57.62 55.99 57.78 59.64 60.09 59.19 58.86 57.02 59.24 59.68 59.53 59.35 58.82 57.53 56.13 55.75 53.98 53.24 52.76
MSLP
1015.67 1015.31 1015.55 1015.89 1017.35 1017.93 1017.75 1017.33 1016.85 1016.72 1016.74 1016.84 1017.01 1017.58 1018.78 1019.58 1020.11 1020.88 1020.48 1020.68 1020.78 1021.11 1021.43 1021.61 1021.54 1021.65 1021.81 1021.97 1022.14 1022.18 1022.22 1022.25 1022.37 1022.51 1022.68 1022.88 1023.00 1023.07 1023.12 1023.24 1023.35 1023.37 1023.45 1023.52 1023.57 1023.62 1023.70 1023.67 1023.62
1015.74 1015.36 1015.81 1016.82 1017.67 1018.29 1017.99 1017.15 1016.99 1016.75 1016.89 1017.22 1017.53 1018.44 1019.01 1019.93 1020.05 1020.58 1020.82 1021.00 1020.81 1021.18 1021.64 1021.88 1021.82 1021.98 1022.10 1022.21 1022.30 1022.41 1022.53 1022.50 1022.67 1022.82 1022.89 1023.11 1023.14 1023.37 1023.51 1023.66 1023.68 1023.78 1023.84 1023.88 1023.94 1023.94 1023.97 1024.02 1023.93
1015.65 1015.83 1016.76 1017.36 1018.22 1018.15 1017.53 1017.14 1016.91 1016.92 1016.91 1017.08 1018.05 1018.79 1019.49 1020.01 1020.20 1020.36 1020.42 1020.89 1021.00 1021.41 1021.84 1022.10 1022.15 1022.21 1022.29 1022.35 1022.27 1022.43 1022.52 1022.70 1022.88 1022.98 1023.26 1023.39 1023.46 1023.66 1023.89 1023.98 1024.06 1024.12 1024.23 1024.34 1024.37 1024.33 1024.34 1024.38 1024.39
1016.08 1016.45 1017.27 1017.70 1017.97 1017.21 1017.01 1016.99 1016.84 1016.95 1017.09 1017.33 1018.28 1019.69 1019.92 1019.86 1019.72 1019.97 1020.44 1020.82 1021.36 1021.68 1021.86 1022.16 1022.28 1022.47 1022.55 1022.68 1022.68 1022.55 1022.57 1022.81 1023.02 1023.19 1023.42 1023.66 1023.82 1024.01 1024.20 1024.38 1024.53 1024.59 1024.67 1024.76 1024.78 1024.76 1024.78 1024.85 1024.88
1016.59 1017.69 1018.05 1017.89 1017.64 1016.86 1016.64 1016.71 1016.67 1016.93 1017.35 1017.87 1018.38 1020.04 1020.38 1019.91 1019.83 1020.32 1020.82 1021.04 1021.64 1022.00 1022.05 1022.28 1022.54 1022.69 1022.77 1022.77 1022.87 1022.93 1022.97 1023.09 1023.25 1023.32 1023.64 1023.92 1024.04 1024.37 1024.61 1024.78 1024.81 1024.93 1025.01 1025.10 1025.14 1025.13 1025.15 1025.22 1025.29
1017.77 1018.46 1018.72 1018.24 1017.64 1016.77 1016.54 1016.54 1016.72 1016.92 1017.44 1018.19 1019.07 1020.11 1020.57 1020.21 1020.21 1020.73 1020.94 1021.38 1021.63 1022.01 1022.31 1022.46 1022.78 1022.88 1022.97 1022.97 1023.05 1023.20 1023.26 1023.40 1023.48 1023.80 1024.07 1024.28 1024.55 1024.82 1025.03 1025.15 1025.24 1025.28 1025.30 1025.36 1025.45 1025.48 1025.49 1025.48 1025.56
1018.37 1018.98 1018.97 1018.35 1017.72 1016.80 1016.30 1016.14 1016.67 1016.82 1017.36 1018.06 1018.67 1020.37 1020.80 1020.36 1020.46 1020.78 1021.18 1021.51 1021.99 1022.35 1022.51 1022.67 1022.89 1023.14 1023.25 1023.33 1023.32 1023.41 1023.59 1023.75 1023.96 1024.18 1024.32 1024.60 1024.92 1025.16 1025.44 1025.54 1025.56 1025.61 1025.66 1025.77 1025.88 1025.89 1025.85 1025.84 1025.82
1019.06 1019.35 1019.07 1018.37 1017.81 1016.93 1016.09 1016.14 1016.30 1016.59 1017.46 1017.90 1018.24 1019.72 1020.56 1020.15 1020.40 1020.85 1021.27 1021.80 1022.28 1022.54 1022.72 1022.77 1022.88 1023.22 1023.52 1023.68 1023.73 1023.69 1023.82 1024.11 1024.34 1024.54 1024.71 1024.96 1025.35 1025.54 1025.72 1025.87 1025.86 1025.88 1025.90 1025.98 1026.03 1026.02 1025.97 1025.95 1025.93
1019.49 1019.64 1019.23 1018.53 1017.79 1017.09 1016.16 1016.32 1016.44 1016.78 1017.33 1018.27 1018.73 1018.93 1018.86 1019.47 1020.14 1020.90 1021.55 1022.11 1022.48 1022.81 1022.85 1023.10 1023.23 1023.42 1023.65 1023.82 1024.07 1024.18 1024.28 1024.38 1024.57 1024.85 1025.07 1025.42 1025.79 1025.94 1026.08 1026.13 1026.08 1026.12 1026.18 1026.27 1026.31 1026.25 1026.26 1026.24 1026.19
1020.05 1019.96 1019.05 1018.33 1017.84 1017.29 1016.80 1016.56 1016.61 1017.10 1017.80 1018.53 1019.00 1019.03 1019.03 1019.66 1020.04 1020.64 1021.21 1021.90 1022.31 1022.84 1022.92 1022.95 1023.27 1023.47 1023.68 1023.76 1024.13 1024.52 1024.67 1024.85 1024.98 1025.18 1025.47 1025.72 1025.98 1026.24 1026.36 1026.43 1026.42 1026.43 1026.48 1026.45 1026.46 1026.47 1026.44 1026.47 1026.51
1020.55 1019.79 1019.03 1018.40 1018.06 1017.62 1017.47 1016.96 1016.83 1017.03 1017.87 1018.02 1018.67 1019.32 1019.49 1019.88 1020.23 1020.57 1020.90 1021.18 1021.77 1022.19 1022.80 1022.82 1023.15 1023.50 1023.81 1023.82 1024.11 1024.46 1024.92 1025.14 1025.37 1025.57 1025.65 1025.67 1025.95 1026.31 1026.57 1026.64 1026.66 1026.75 1026.78 1026.88 1026.79 1026.77 1026.74 1026.75 1026.76
1020.66 1019.86 1019.61 1018.77 1018.42 1018.36 1017.83 1017.24 1017.03 1017.09 1016.95 1017.00 1017.81 1018.57 1019.30 1019.77 1020.03 1020.21 1020.61 1021.05 1021.46 1021.95 1022.39 1022.74 1022.91 1023.31 1023.79 1024.26 1024.34 1024.38 1024.52 1024.94 1025.37 1025.54 1025.65 1025.99 1026.31 1026.47 1026.61 1026.83 1026.87 1026.83 1026.82 1026.89 1026.84 1026.85 1026.76 1026.75 1026.71
1020.69 1020.06 1019.91 1019.49 1018.99 1018.76 1018.10 1017.62 1017.50 1017.10 1016.98 1017.23 1018.19 1019.03 1019.33 1019.65 1019.91 1020.13 1020.34 1020.84 1021.38 1021.77 1022.00 1022.40 1022.68 1023.00 1023.46 1023.99 1024.51 1024.70 1024.63 1024.73 1024.96 1025.26 1025.36 1025.53 1025.93 1026.15 1026.24 1026.36 1026.53 1026.60 1026.60 1026.67 1026.73 1026.74 1026.66 1026.68 1026.76
1019.47 1019.78 1019.80 1019.76 1019.07 1018.96 1018.63 1017.93 1017.74 1017.05 1017.41 1017.92 1018.44 1019.03 1019.35 1019.44 1019.59 1019.99 1020.28 1020.58 1020.96 1021.39 1021.78 1022.11 1022.43 1022.74 1023.18 1023.65 1024.09 1024.64 1024.85 1024.86 1025.01 1025.06 1025.18 1025.48 1025.63 1025.89 1026.20 1026.28 1026.36 1026.37 1026.27 1026.25 1026.40 1026.57 1026.68 1026.68 1026.67
1019.28 1019.94 1020.23 1019.90 1019.46 1018.97 1018.29 1018.02 1017.52 1017.30 1017.64 1017.99 1018.76 1019.23 1019.40 1019.41 1019.55 1019.21 1019.42 1020.06 1020.47 1020.78 1021.33 1021.76 1022.20 1022.44 1022.92 1023.24 1023.70 1024.05 1024.35 1024.51 1024.82 1025.01 1025.15 1025.25 1025.37 1025.56 1025.73 1025.99 1026.14 1026.13 1026.22 1026.30 1026.42 1026.53 1026.67 1026.79 1026.80
1019.29 1019.66 1019.87 1019.02 1019.24 1018.89 1018.86 1017.46 1017.21 1017.22 1017.76 1018.08 1018.76 1019.12 1019.37 1019.24 1018.91 1019.00 1019.37 1019.70 1020.07 1020.57 1020.89 1021.29 1021.47 1022.14 1022.46 1022.91 1023.24 1023.64 1023.90 1024.07 1024.14 1024.38 1024.62 1024.87 1025.16 1025.40 1025.60 1025.76 1025.81 1025.86 1026.06 1026.23 1026.44 1026.63 1026.80 1026.92 1027.01
1019.28 1019.42 1019.43 1019.01 1018.61 1018.63 1018.55 1017.40 1016.68 1016.93 1017.39 1018.08 1018.30 1018.67 1018.77 1018.94 1019.04 1018.79 1018.94 1019.32 1019.40 1019.83 1020.42 1020.93 1021.20 1021.46 1022.00 1022.42 1022.83 1023.07 1023.34 1023.67 1023.75 1023.98 1024.31 1024.56 1024.80 1025.12 1025.48 1025.68 1025.66 1025.68 1025.93 1026.15 1026.32 1026.59 1026.71 1026.79 1026.86
1018.56 1019.03 1018.91 1018.26 1018.34 1018.49 1018.41 1017.25 1016.80 1016.85 1017.17 1017.33 1017.59 1018.02 1018.22 1018.17 1017.66 1017.80 1018.32 1018.65 1019.01 1019.32 1019.85 1020.25 1020.91 1021.27 1021.47 1022.02 1022.75 1022.99 1023.26 1023.42 1023.47 1023.64 1023.72 1023.87 1024.26 1024.54 1024.90 1025.16 1025.40 1025.60 1025.80 1026.00 1026.11 1026.34 1026.54 1026.64 1026.69
1018.04 1018.38 1018.25 1017.82 1017.87 1018.36 1017.81 1017.46 1016.95 1016.76 1016.80 1016.91 1017.07 1017.20 1017.21 1017.04 1016.36 1016.99 1017.58 1018.19 1018.58 1018.90 1019.34 1019.76 1020.02 1020.51 1021.20 1021.70 1022.47 1022.98 1023.00 1023.29 1023.33 1023.15 1023.35 1023.61 1023.84 1023.95 1024.30 1024.49 1024.68 1024.98 1025.20 1025.53 1025.85 1026.21 1026.43 1026.65 1026.72
1017.64 1017.82 1017.82 1017.91 1017.61 1018.12 1017.84 1017.14 1016.86 1016.61 1016.25 1016.12 1016.02 1016.18 1016.15 1016.26 1016.42 1016.55 1016.89 1017.44 1017.74 1018.01 1018.50 1019.24 1019.56 1019.97 1020.06 1020.48 1021.16 1022.05 1022.47 1022.65 1022.70 1022.83 1022.91 1023.07 1023.40 1023.56 1023.71 1023.94 1024.16 1024.53 1024.98 1025.29 1025.59 1025.95 1026.37 1026.50 1026.64
1017.38 1017.27 1017.70 1017.94 1017.99 1018.09 1017.91 1017.45 1016.70 1015.59 1015.64 1015.36 1014.89 1014.90 1014.95 1015.02 1015.41 1015.79 1016.09 1016.35 1016.71 1017.25 1017.41 1017.87 1018.48 1019.18 1019.59 1019.80 1020.38 1021.49 1022.28 1022.39 1022.50 1022.42 1022.48 1022.38 1022.72 1023.06 1023.32 1023.60 1023.87 1024.20 1024.35 1024.60 1024.98 1025.26 1025.56 1025.94 1025.88
1017.17 1017.05 1017.60 1018.04 1018.52 1018.64 1018.08 1017.25 1016.04 1015.04 1014.60 1014.35 1013.93 1014.00 1014.16 1014.28 1014.40 1014.64 1014.99 1015.63 1015.82 1015.77 1016.34 1017.31 1017.78 1018.31 1019.00 1019.47 1020.03 1020.53 1021.03 1021.29 1020.98 1021.28 1021.52 1021.59 1021.92 1022.20 1022.63 1022.96 1023.44 1023.73 1024.01 1024.27 1024.26 1024.41 1024.80 1025.06 1025.29
1016.81 1016.77 1017.83 1018.16 1018.80 1019.11 1018.44 1017.97 1015.24 1014.79 1014.05 1013.05 1013.04 1012.82 1013.02 1013.21 1013.54 1013.73 1014.04 1014.17 1014.52 1015.25 1015.65 1016.24 1017.15 1017.77 1018.43 1019.06 1019.38 1020.00 1020.33 1020.38 1020.75 1021.00 1021.10 1021.39 1021.52 1021.64 1021.89 1022.22 1022.62 1022.97 1023.30 1023.49 1023.72 1024.20 1024.34 1024.31 1024.23
1017.09 1017.59 1018.52 1019.16 1019.24 1018.91 1018.03 1017.45 1015.06 1014.10 1012.48 1012.28 1011.88 1011.95 1012.20 1012.56 1012.61 1012.77 1012.99 1013.36 1013.78 1014.50 1015.24 1015.83 1016.36 1016.89 1017.57 1018.16 1018.65 1019.04 1019.41 1019.89 1020.32 1020.50 1020.68 1020.72 1020.97 1021.16 1021.34 1021.58 1021.85 1022.10 1022.40 1022.59 1022.84 1023.08 1023.49 1023.64 1023.85
1016.51 1017.17 1018.64 1019.48 1019.44 1018.37 1017.52 1017.42 1014.17 1012.74 1012.05 1011.64 1011.52 1011.47 1011.48 1011.66 1011.97 1012.28 1012.84 1013.21 1013.54 1014.01 1014.40 1014.96 1015.60 1016.07 1016.59 1017.22 1017.78 1018.00 1018.28 1018.89 1019.31 1019.62 1019.90 1020.36 1020.49 1020.58 1020.63 1020.98 1021.22 1021.32 1021.43 1021.66 1022.00 1022.41 1022.68 1022.79 1023.14
1014.33 1015.19 1015.81 1017.06 1018.37 1018.17 1018.10 1016.29 1013.22 1011.58 1011.14 1011.25 1011.12 1011.04 1011.09 1011.41 1011.50 1011.69 1011.92 1012.39 1012.83 1013.19 1013.68 1014.22 1014.81 1015.20 1015.85 1016.28 1016.61 1017.16 1017.76 1018.10 1018.39 1018.65 1019.06 1019.49 1019.53 1019.43 1019.48 1019.86 1020.13 1020.39 1020.70 1020.99 1021.34 1021.69 1022.02 1022.27 1022.48
1014.25 1014.48 1014.67 1016.44 1018.56 1018.21 1016.76 1015.05 1013.06 1011.08 1011.06 1010.98 1010.99 1011.19 1011.15 1011.33 1011.31 1011.31 1011.39 1011.55 1012.04 1012.53 1012.80 1013.27 1013.87 1014.34 1015.01 1015.39 1015.89 1016.34 1016.69 1017.14 1017.37 1017.71 1018.14 1018.11 1018.09 1018.09 1018.31 1018.68 1019.10 1019.46 1019.84 1020.04 1020.27 1020.60 1020.73 1021.07 1021.42
1012.95 1013.66 1014.72 1015.51 1017.10 1017.37 1016.03 1014.53 1012.12 1010.93 1010.43 1010.66 1010.87 1010.93 1011.12 1011.30 1011.40 1011.31 1011.29 1011.50 1011.72 1011.96 1012.34 1012.90 1013.27 1013.54 1013.78 1014.15 1014.73 1015.15 1015.46 1015.90 1016.08 1016.51 1016.61 1016.69 1016.80 1017.24 1017.60 1017.95 1018.29 1018.62 1018.77 1018.89 1019.29 1019.56 1019.75 1019.97 1020.16
1012.33 1012.33 1013.22 1013.90 1014.83 1015.09 1015.21 1012.85 1010.70 1010.03 1009.75 1009.84 1010.27 1010.39 1010.67 1011.06 1011.24 1011.28 1011.36 1011.43 1011.80 1012.09 1012.44 1012.84 1013.31 1013.59 1013.83 1014.02 1014.02 1014.33 1014.53 1014.79 1015.19 1015.50 1015.54 1015.76 1016.20 1016.34 1016.73 1017.06 1017.32 1017.38 1017.50 1017.72 1018.05 1018.33 1018.62 1019.08 1019.30
1011.09 1010.61 1011.36 1012.43 1013.50 1013.75 1013.27 1011.23 1009.34 1009.33 1009.10 1009.33 1009.76 1010.16 1010.42 1010.82 1010.99 1011.23 1011.45 1011.60 1011.92 1012.27 1012.55 1012.74 1013.00 1013.27 1013.45 1013.74 1014.10 1014.25 1014.46 1014.81 1015.06 1015.20 1015.41 1015.73 1016.02 1016.25 1016.37 1016.51 1016.61 1016.76 1016.94 1017.22 1017.40 1017.49 1017.80 1018.01 1018.24
Wind_Speed
7 8 2 5 5 5 2 1 2 3 3 4 3 8 8 5 2 2 2 7 12 8 7 6 12 13 13 13 13 13 14 17 18 17 18 18 19 19 19 17 16 17 17 16 16 16 16 17 17
6 5 5 2 6 3 4 1 4 1 6 10 9 4 6 3 3 8 6 10 11 10 7 5 10 11 13 13 14 15 14 15 16 16 18 14 18 19 17 17 16 16 16 16 15 16 17 17 16
6 2 4 4 3 3 4 4 6 3 4 3 5 7 3 2 5 8 11 12 11 9 7 8 10 11 13 13 14 14 14 13 14 15 17 16 19 19 17 15 15 16 15 15 15 16 16 17 17
4 5 4 4 2 4 5 6 5 5 3 7 6 7 3 5 5 8 15 14 10 8 7 9 11 12 13 13 13 14 15 14 14 17 17 15 18 18 16 15 14 14 15 15 15 15 15 17 17
4 3 3 2 3 4 2 3 6 5 4 4 3 4 3 5 13 16 15 13 12 7 7 8 11 12 12 14 14 15 14 15 16 17 17 14 16 18 15 13 14 14 14 14 14 14 13 14 15
4 3 2 2 1 2 3 6 6 4 4 5 7 5 4 2 14 12 12 11 11 10 6 6 9 9 10 13 14 14 15 12 12 15 14 13 15 14 13 12 12 13 13 13 12 11 11 12 13
4 3 3 2 3 2 5 8 6 6 6 3 11 6 2 3 10 13 13 11 9 7 7 5 7 7 7 8 10 12 14 14 12 9 13 15 13 13 11 10 11 12 12 11 10 9 9 9 10
2 3 1 2 2 4 2 3 3 5 4 7 5 8 6 8 13 12 13 12 9 6 6 7 7 6 5 5 7 9 10 12 12 8 8 12 12 11 10 7 9 10 10 9 8 7 7 7 7
0 3 3 3 1 5 0 3 2 1 6 3 3 6 5 11 16 13 12 9 8 6 7 6 6 6 5 6 5 7 11 11 12 9 10 8 4 6 6 5 7 8 7 7 7 5 4 5 6
3 3 5 1 2 3 6 2 7 4 3 3 4 4 11 12 16 15 14 12 11 9 8 9 7 6 6 5 6 5 5 4 5 5 6 4 5 4 4 4 6 6 5 5 5 2 2 2 2
4 5 3 4 2 4 4 2 2 9 3 7 9 9 12 9 9 15 13 15 12 13 9 9 9 7 5 6 5 3 3 3 3 5 4 5 4 4 3 2 2 2 1 1 2 2 2 3 2
3 6 4 2 5 6 4 7 2 5 6 4 11 17 14 12 13 13 12 11 10 12 11 10 10 9 6 3 3 5 5 4 4 5 6 4 3 3 4 2 3 3 2 2 1 1 2 3 4
3 4 2 7 6 5 8 5 5 6 1 8 13 13 17 14 10 6 8 9 8 11 9 11 11 10 8 7 4 2 3 4 5 5 6 5 5 5 5 4 4 4 3 3 3 3 2 2 3
8 6 4 4 9 3 4 5 1 4 7 10 14 14 15 15 14 8 9 11 11 10 8 7 12 11 9 8 7 5 3 4 4 4 5 6 4 4 4 4 4 4 4 4 4 4 3 3 3
5 6 3 6 4 6 2 12 8 4 6 12 10 10 12 12 10 18 13 14 13 10 10 8 9 11 10 10 8 7 7 6 5 4 6 6 6 6 6 4 4 4 4 4 3 3 2 2 1
5 4 3 5 8 7 7 16 7 8 9 11 10 9 12 13 15 14 12 11 10 11 12 9 10 10 11 9 7 6 6 6 6 6 6 8 7 6 5 4 5 4 3 4 3 3 2 2 3
5 4 5 2 12 4 9 12 16 9 9 10 11 13 13 12 11 13 13 13 13 13 13 12 10 12 11 9 7 7 8 7 6 5 5 7 6 6 5 4 4 5 4 3 3 2 2 3 2
7 5 5 7 8 7 7 17 9 5 8 13 14 13 13 14 20 18 15 14 14 14 13 15 11 9 11 7 4 3 4 5 5 7 7 8 7 8 7 5 5 5 4 4 3 4 3 2 3
12 8 9 4 6 8 21 17 16 10 6 8 10 11 14 16 17 15 15 13 13 14 13 16 15 14 10 9 6 4 7 4 3 6 8 9 8 8 8 6 6 6 7 6 5 3 4 4 3
9 10 10 5 5 10 4 19 12 8 10 9 13 13 14 14 10 12 15 14 15 16 16 15 16 15 14 11 10 5 4 3 4 4 7 8 9 9 9 9 8 7 5 5 6 5 3 2 4
11 14 7 4 2 4 1 7 9 10 14 11 10 10 13 15 16 13 15 16 16 16 19 19 18 16 15 14 8 5 1 1 3 5 8 9 11 10 11 9 7 7 7 7 6 7 8 5 5
19 8 9 6 7 5 8 7 6 8 15 15 19 16 14 13 10 14 17 16 18 20 17 17 17 17 15 15 12 16 12 12 11 10 9 8 11 12 11 10 9 8 7 7 8 7 7 5 7
7 10 7 5 6 3 3 3 8 3 8 19 15 19 17 14 12 14 17 19 17 16 17 16 15 15 15 14 15 12 13 10 6 7 8 8 7 11 11 11 10 10 7 9 9 7 9 8 5
9 8 6 4 3 4 7 7 7 7 13 6 10 16 14 13 13 13 15 17 16 15 13 13 15 15 16 16 17 17 16 12 7 6 8 8 8 8 11 11 11 11 10 10 10 11 11 11 9
6 9 2 2 3 7 4 8 14 9 7 7 6 9 11 11 11 11 11 10 12 13 15 14 16 17 17 17 17 18 18 15 13 11 9 8 7 7 11 11 12 11 12 12 11 10 11 10 10
26 14 7 12 7 5 4 10 9 12 13 9 7 7 5 7 9 11 12 14 14 16 16 16 16 16 16 17 18 15 15 11 11 12 10 9 9 10 10 12 12 13 12 11 11 9 9 10 10
11 13 7 8 2 4 6 7 11 9 9 7 9 6 8 8 7 11 10 12 13 13 17 18 16 17 14 16 14 15 14 15 14 14 10 11 13 11 12 13 14 14 14 13 13 11 12 11 11
12 9 5 0 7 5 5 6 7 9 11 8 8 10 8 8 7 5 6 8 7 8 9 10 14 16 17 16 15 14 15 16 17 13 16 16 15 12 10 12 13 14 13 14 14 12 11 10 10
9 11 7 7 4 7 4 9 10 18 9 13 10 10 10 9 8 6 3 2 5 5 6 8 7 7 7 8 12 14 14 15 15 15 15 15 12 11 13 12 14 16 17 15 14 14 12 12 13
3 11 10 9 8 4 3 8 2 8 8 8 9 8 7 7 7 5 4 4 4 4 4 6 7 9 10 7 6 9 7 5 8 11 12 8 10 7 12 13 14 14 13 12 14 13 11 14 13
Wind_Direction
336 319 58 40 55 64 292 342 182 128 54 335 65 103 115 77 48 170 288 130 133 125 114 119 110 118 125 124 116 106 108 109 106 105 102 102 100 93 89 88 88 85 89 89 90 91 89 78 76
324 340 37 83 83 62 275 256 147 194 144 119 93 91 48 80 80 112 112 144 127 125 115 115 114 123 124 120 113 109 109 108 110 110 100 108 104 98 99 95 95 93 92 93 96 96 89 78 83
351 73 66 78 104 169 195 188 162 144 162 118 89 53 92 105 115 159 134 136 123 116 113 120 121 126 123 122 122 118 111 108 112 110 103 95 107 105 100 96 98 94 93 95 97 98 85 77 91
13 6 30 84 218 258 192 181 164 132 59 62 113 70 28 300 148 133 142 129 121 121 120 122 126 134 129 125 122 122 115 101 114 112 108 99 107 108 99 103 98 98 95 94 95 93 82 80 93
43 61 18 332 251 288 105 202 161 133 127 85 118 139 57 340 114 126 135 129 127 122 121 127 132 134 135 135 123 118 113 114 110 109 114 114 111 104 107 108 109 102 97 92 91 90 83 80 86
40 83 37 256 297 233 155 190 165 123 137 156 78 97 150 262 127 138 130 124 129 129 123 134 136 135 131 128 123 119 120 108 104 109 118 111 104 108 110 113 107 104 100 96 94 92 88 83 85
97 87 231 308 277 313 205 163 168 148 140 155 138 106 199 233 136 137 131 125 127 127 122 121 132 132 126 118 127 127 126 122 115 127 117 118 118 113 108 107 109 105 101 99 97 97 95 87 77
81 111 292 258 229 261 229 136 120 118 134 125 136 159 181 212 147 135 133 133 133 132 128 132 128 124 122 119 125 131 126 127 131 133 96 99 101 104 103 97 112 113 113 116 119 107 86 69 57
267 84 210 252 337 272 168 123 28 41 103 70 11 152 188 136 139 135 133 140 136 139 140 135 131 127 133 119 109 102 123 130 128 121 111 93 105 110 108 127 121 129 129 124 116 105 89 54 20
111 184 205 298 270 314 305 199 154 107 110 52 30 358 131 136 151 152 156 157 156 163 163 153 150 149 148 139 131 116 119 119 127 123 125 122 121 121 131 134 129 128 143 148 137 119 12 37 42
182 208 148 281 334 346 297 286 244 130 216 197 183 166 152 148 161 165 169 163 170 166 169 169 158 159 156 153 150 141 132 132 131 136 143 145 134 138 147 153 142 120 112 28 31 37 56 86 91
153 256 266 288 7 342 304 313 261 203 208 204 165 166 159 169 177 169 170 171 161 168 177 172 167 166 164 149 174 161 157 159 159 173 165 149 151 165 166 173 191 187 195 216 192 182 163 114 92
219 197 209 292 316 310 307 265 253 244 177 108 134 161 173 178 186 172 165 164 158 179 177 175 174 170 169 163 168 188 182 168 174 177 180 162 169 176 177 188 186 201 195 189 183 188 161 137 120
195 174 164 303 294 253 294 287 17 258 140 128 151 172 182 187 187 180 166 179 176 185 186 167 179 176 165 171 167 181 188 201 196 188 179 183 178 175 185 194 200 203 192 186 178 183 183 187 165
138 150 161 217 236 271 58 274 217 235 172 153 171 181 186 196 191 204 190 187 189 185 183 182 178 176 172 173 181 180 193 183 185 190 188 190 190 191 186 188 196 199 195 178 174 176 164 169 167
135 125 154 206 173 254 158 253 226 197 167 181 181 181 196 202 202 207 205 193 189 187 191 183 184 181 177 175 177 185 196 195 191 189 190 194 203 199 189 187 197 197 182 175 173 176 190 205 193
203 168 187 256 198 158 195 245 252 229 182 199 193 194 201 205 214 212 209 206 192 189 188 193 188 181 183 183 185 181 192 199 196 186 196 206 202 193 186 201 209 186 184 187 173 202 181 191 184
166 159 211 199 203 189 209 245 273 273 189 204 203 203 204 204 213 210 206 200 192 192 190 189 189 184 183 164 168 179 189 207 192 201 202 192 191 186 187 197 202 189 181 191 177 186 204 190 186
161 179 223 237 189 168 225 241 241 262 258 228 212 204 210 210 217 204 200 199 188 191 188 194 186 190 175 176 182 202 208 206 211 197 202 203 200 193 194 203 194 193 191 194 190 168 189 234 183
174 185 212 257 167 193 206 242 242 240 243 223 214 215 216 221 211 198 197 190 191 188 193 195 198 193 194 195 197 199 178 203 203 203 213 202 200 202 201 201 204 198 193 194 185 175 178 239 200
205 203 188 218 120 227 43 278 240 248 236 243 236 221 216 209 206 201 200 197 195 191 195 197 195 195 201 201 193 174 148 192 191 212 218 212 206 208 208 210 204 201 195 198 193 188 180 202 219
207 166 182 152 152 234 172 272 259 232 236 228 233 228 229 209 206 201 196 204 202 207 197 198 196 195 201 193 193 205 212 219 219 216 217 211 202 208 208 208 206 206 204 203 204 205 206 177 218
222 152 167 146 159 343 226 235 259 215 250 242 230 231 225 219 203 199 202 203 206 201 200 197 193 198 196 196 200 203 215 224 225 220 213 211 208 213 210 208 206 209 204 214 210 202 210 213 200
146 98 65 65 123 238 209 210 256 196 224 241 235 234 223 212 209 207 204 202 203 199 195 191 191 198 194 194 199 204 212 213 207 203 208 211 215 214 218 212 211 211 211 209 212 215 214 216 228
140 149 134 218 191 228 200 211 243 252 241 219 199 227 224 210 208 203 193 194 198 187 192 192 193 200 196 196 199 206 210 206 211 210 216 212 215 218 222 212 214 217 217 217 216 217 222 214 218
188 175 169 186 189 161 134 229 248 228 239 218 251 247 241 224 219 210 197 195 197 192 195 195 199 203 197 199 208 209 211 211 216 215 215 219 217 218 213 211 217 224 224 222 218 223 228 226 226
177 200 170 106 50 90 205 272 296 250 256 227 226 223 228 226 235 223 212 192 193 195 198 196 197 205 196 201 206 208 209 211 217 219 210 216 216 218 212 209 215 223 226 224 218 222 223 218 224
179 138 128 345 153 226 252 276 232 249 221 221 221 225 221 220 228 235 230 201 205 202 198 200 202 200 198 200 201 207 209 212 217 213 216 217 222 216 206 208 213 221 223 224 220 226 225 215 220
159 177 199 122 171 170 173 251 211 224 198 203 209 218 205 204 210 218 211 160 181 181 178 191 198 198 198 197 205 208 213 216 218 220 221 223 221 213 211 209 211 216 219 216 213 222 212 210 224
221 191 174 193 212 224 172 264 224 214 193 177 191 201 199 189 196 192 187 168 153 176 183 198 201 199 206 209 213 223 235 228 222 226 233 224 225 208 214 218 221 225 224 219 216 219 213 219 219